JASON-3 (41240 NORAD) Tracking and Keplerian Element Data

This shows tracking and keplerian element data for the satellite.

Feedback or suggestion? Click here.




ElementValue
Catalog41240
NameJASON-3
Epoch Orbit11683
Epoch Day198.93347615
Epoch Year2018
RAAN20.1683
Inclination66.0418
Eccentricity0.0007751
Argument of Perigee266.9136
Mean Anonmoly93.0992
Mean Motion12.80930672
Decay Rate-5.3E-07
L11 41240U 16002A 18198.93347615 -.00000053 00000-0 32798-4 0 9997
L22 41240 66.0418 20.1683 0007751 266.9136 93.0992 12.80930672116830

Live tracking and technical data element details for JASON-3 (NORAD 41240). JASON-3 can be tracked NOW for your location showing map with azimuth and elevation plus other details from your city location.

Track the satellite on the map from your city or location and see movement details for azimuth, elevation, latitude, longitude, range, height, and movement on the map or in text.







IsCatalogInMostPopularTable: catalog: 41240, numindb: 56
Update: records affected: 1



GetName: 41240 JASON-3

Hit Count: updated at: Thu, 19 Jul 2018 21:29:55 GMT